FORMOSAT-3 FM3

Last updated on Tue Mar 15 2022 00:02:21 GMT+0000 (Coordinated Universal Time)

1 29050U 06011D 22073.35868348 .00000966 00000+0 21108-3 0 9998 2 29050 72.0154 60.4450 0051921 251.3182 108.2331 14.59282624848917
UTC large
Height (km)
Speed (km/s)
/
Latitude / Longitude
Inclination (degrees)
Orbital Period (minutes)
Azimuth
Elevation
Range (km)
Doppler Factor

Next 0 passes for location: London (51.5072 / 0.1276)

Sorry there are no passes over London.